When you browse on this site, cookies collect data to enhance your experience and personalize the content and advertising you see.
Visit our Privacy Policy to learn more. By continuing to use the site, you agree to this use of cookies and data.

Hourly Weather Mushino

Today, 4 July, Saturday

Time Temperature Precipitation Wind Pressure Humidity
00:00 +19°C° 0.8 mm 2 mps 742 mmHg 97%
01:00 +18°C° 0.8 mm 2 mps 742 mmHg 97%
02:00 +19°C° 0.8 mm 1 mps 742 mmHg 98%
03:00 +19°C° 0 mm 1 mps 742 mmHg 98%
04:00 +19°C° 0 mm 1 mps 742 mmHg 98%
05:00 +19°C° 0 mm 1 mps 742 mmHg 98%
06:00 +19°C° 0 mm 2 mps 742 mmHg 94%
07:00 +20°C° 0 mm 2 mps 743 mmHg 91%
08:00 +21°C° 0 mm 2 mps 743 mmHg 88%
09:00 +23°C° 0.2 mm 2 mps 743 mmHg 85%
10:00 +24°C° 0.2 mm 2 mps 743 mmHg 83%
11:00 +24°C° 0.2 mm 2 mps 743 mmHg 80%
12:00 +24°C° 0.8 mm 3 mps 743 mmHg 80%
13:00 +25°C° 0.8 mm 3 mps 743 mmHg 80%
14:00 +25°C° 0.8 mm 3 mps 743 mmHg 81%
15:00 +25°C° 0.3 mm 3 mps 743 mmHg 81%
16:00 +25°C° 0.3 mm 3 mps 743 mmHg 81%
17:00 +24°C° 0.3 mm 3 mps 743 mmHg 81%
18:00 +23°C° 0 mm 2 mps 743 mmHg 83%
19:00 +21°C° 0 mm 2 mps 743 mmHg 85%
20:00 +20°C° 0 mm 2 mps 743 mmHg 87%
21:00 +19°C° 0 mm 2 mps 743 mmHg 88%
22:00 +18°C° 0 mm 2 mps 744 mmHg 90%
23:00 +17°C° 0 mm 2 mps 744 mmHg 91%

Tomorrow, 5 July, Sunday

Time Temperature Precipitation Wind Pressure Humidity
00:00 +18°C° 0 mm 1 mps 744 mmHg 91%
01:00 +18°C° 0 mm 1 mps 744 mmHg 91%
02:00 +16°C° 0 mm 1 mps 744 mmHg 91%
03:00 +18°C° 0 mm 1 mps 744 mmHg 90%
04:00 +18°C° 0 mm 1 mps 744 mmHg 89%
05:00 +16°C° 0 mm 0 mps 744 mmHg 89%
06:00 +17°C° 0 mm 0 mps 744 mmHg 84%
07:00 +21°C° 0 mm 1 mps 744 mmHg 79%
08:00 +22°C° 0 mm 1 mps 743 mmHg 75%
09:00 +23°C° 0.1 mm 1 mps 743 mmHg 73%
10:00 +24°C° 0.1 mm 2 mps 743 mmHg 71%
11:00 +25°C° 0.1 mm 2 mps 743 mmHg 69%
12:00 +25°C° 0.6 mm 3 mps 743 mmHg 70%
13:00 +26°C° 0.6 mm 3 mps 743 mmHg 71%
14:00 +26°C° 0.6 mm 3 mps 742 mmHg 72%
15:00 +26°C° 0.1 mm 3 mps 742 mmHg 73%
16:00 +26°C° 0.1 mm 3 mps 742 mmHg 73%
17:00 +25°C° 0.1 mm 3 mps 742 mmHg 73%
18:00 +24°C° 0 mm 2 mps 742 mmHg 76%
19:00 +23°C° 0 mm 2 mps 742 mmHg 80%
20:00 +20°C° 0 mm 2 mps 742 mmHg 84%
21:00 +19°C° 0 mm 2 mps 742 mmHg 86%
22:00 +19°C° 0 mm 2 mps 742 mmHg 89%
23:00 +18°C° 0 mm 2 mps 742 mmHg 92%

Day after tomorrow, 6 July, Monday

Time Temperature Precipitation Wind Pressure Humidity
00:00 +18°C° 0 mm 2 mps 742 mmHg 92%
01:00 +17°C° 0 mm 2 mps 742 mmHg 93%
02:00 +17°C° 0 mm 2 mps 742 mmHg 93%
03:00 +17°C° 0 mm 2 mps 742 mmHg 93%
04:00 +17°C° 0 mm 2 mps 742 mmHg 93%
05:00 +17°C° 0 mm 2 mps 742 mmHg 94%
06:00 +19°C° 0 mm 2 mps 742 mmHg 90%
07:00 +20°C° 0 mm 3 mps 742 mmHg 86%
08:00 +22°C° 0 mm 3 mps 742 mmHg 83%
09:00 +24°C° 0 mm 3 mps 742 mmHg 79%
10:00 +25°C° 0 mm 4 mps 742 mmHg 76%
11:00 +26°C° 0 mm 4 mps 742 mmHg 73%
12:00 +26°C° 0 mm 4 mps 741 mmHg 72%
13:00 +27°C° 0 mm 4 mps 741 mmHg 71%
14:00 +27°C° 0 mm 5 mps 741 mmHg 70%
15:00 +27°C° 0.1 mm 4 mps 740 mmHg 73%
16:00 +27°C° 0.1 mm 4 mps 740 mmHg 75%
17:00 +27°C° 0.1 mm 4 mps 740 mmHg 77%
18:00 +26°C° 0.2 mm 3 mps 740 mmHg 81%
19:00 +24°C° 0.2 mm 3 mps 740 mmHg 84%
20:00 +22°C° 0.2 mm 3 mps 739 mmHg 88%
21:00 +21°C° 0 mm 3 mps 739 mmHg 89%
22:00 +21°C° 0 mm 3 mps 739 mmHg 91%
23:00 +20°C° 0 mm 3 mps 739 mmHg 92%

7 July, Tuesday

Time Temperature Precipitation Wind Pressure Humidity
00:00 +20°C° 0.2 mm 3 mps 739 mmHg 93%
01:00 +19°C° 0.2 mm 3 mps 739 mmHg 93%
02:00 +19°C° 0.2 mm 3 mps 739 mmHg 93%
03:00 +19°C° 0.4 mm 3 mps 739 mmHg 94%
04:00 +19°C° 0.4 mm 3 mps 739 mmHg 94%
05:00 +19°C° 0.4 mm 2 mps 739 mmHg 95%
06:00 +20°C° 0.1 mm 2 mps 739 mmHg 92%
07:00 +21°C° 0.1 mm 2 mps 739 mmHg 90%
08:00 +23°C° 0.1 mm 2 mps 740 mmHg 88%
09:00 +22°C° 0.8 mm 3 mps 740 mmHg 88%
10:00 +21°C° 0.8 mm 4 mps 740 mmHg 89%
11:00 +21°C° 0.8 mm 5 mps 740 mmHg 89%
12:00 +20°C° 0.2 mm 4 mps 740 mmHg 89%
13:00 +20°C° 0.2 mm 4 mps 740 mmHg 89%
14:00 +19°C° 0.2 mm 3 mps 740 mmHg 89%
15:00 +19°C° 0 mm 3 mps 740 mmHg 86%
16:00 +19°C° 0 mm 3 mps 741 mmHg 82%
17:00 +20°C° 0 mm 2 mps 741 mmHg 79%
18:00 +19°C° 0 mm 2 mps 741 mmHg 81%
19:00 +18°C° 0 mm 2 mps 741 mmHg 83%
20:00 +18°C° 0 mm 1 mps 741 mmHg 85%
21:00 +16°C° 0 mm 2 mps 741 mmHg 86%
22:00 +16°C° 0 mm 2 mps 742 mmHg 86%
23:00 +14°C° 0 mm 3 mps 742 mmHg 87%

8 July, Wednesday

Time Temperature Precipitation Wind Pressure Humidity
00:00 +14°C° 0 mm 3 mps 742 mmHg 85%
01:00 +13°C° 0 mm 3 mps 742 mmHg 83%
02:00 +13°C° 0 mm 3 mps 742 mmHg 82%
03:00 +13°C° 0 mm 3 mps 742 mmHg 83%
04:00 +12°C° 0 mm 3 mps 743 mmHg 85%
05:00 +11°C° 0 mm 3 mps 743 mmHg 87%
06:00 +12°C° 0 mm 3 mps 743 mmHg 83%
07:00 +13°C° 0 mm 4 mps 743 mmHg 80%
08:00 +15°C° 0 mm 4 mps 743 mmHg 77%
09:00 +15°C° 0 mm 4 mps 744 mmHg 73%
10:00 +17°C° 0 mm 4 mps 744 mmHg 70%
11:00 +18°C° 0 mm 4 mps 744 mmHg 66%
12:00 +18°C° 0 mm 4 mps 744 mmHg 66%
13:00 +19°C° 0 mm 4 mps 744 mmHg 65%
14:00 +19°C° 0 mm 4 mps 744 mmHg 64%
15:00 +19°C° 0 mm 4 mps 744 mmHg 65%
16:00 +19°C° 0 mm 3 mps 743 mmHg 66%
17:00 +19°C° 0 mm 3 mps 743 mmHg 67%
18:00 +18°C° 0.1 mm 3 mps 744 mmHg 73%
19:00 +16°C° 0.1 mm 3 mps 744 mmHg 79%
20:00 +14°C° 0.1 mm 3 mps 744 mmHg 86%
21:00 +13°C° 0 mm 3 mps 744 mmHg 88%
22:00 +12°C° 0 mm 3 mps 744 mmHg 91%
23:00 +11°C° 0 mm 3 mps 744 mmHg 93%

9 July, Thursday

Time Temperature Precipitation Wind Pressure Humidity
00:00 +10°C° 0 mm 3 mps 745 mmHg 94%
01:00 +10°C° 0 mm 3 mps 745 mmHg 95%
02:00 +10°C° 0 mm 3 mps 745 mmHg 96%
03:00 +9°C° 0 mm 3 mps 745 mmHg 95%
04:00 +9°C° 0 mm 3 mps 745 mmHg 95%
05:00 +9°C° 0 mm 3 mps 745 mmHg 94%
06:00 +11°C° 0 mm 3 mps 745 mmHg 89%
07:00 +12°C° 0 mm 4 mps 745 mmHg 84%
08:00 +13°C° 0 mm 4 mps 746 mmHg 79%
09:00 +15°C° 0 mm 4 mps 746 mmHg 76%
10:00 +16°C° 0 mm 5 mps 746 mmHg 72%
11:00 +17°C° 0 mm 5 mps 746 mmHg 69%
12:00 +17°C° 0 mm 5 mps 746 mmHg 67%
13:00 +19°C° 0 mm 5 mps 745 mmHg 66%
14:00 +19°C° 0 mm 5 mps 745 mmHg 65%
15:00 +19°C° 0.1 mm 4 mps 745 mmHg 67%
16:00 +19°C° 0.1 mm 4 mps 745 mmHg 69%
17:00 +19°C° 0.1 mm 4 mps 745 mmHg 72%
18:00 +18°C° 0 mm 3 mps 745 mmHg 75%
19:00 +17°C° 0 mm 3 mps 745 mmHg 79%
20:00 +15°C° 0 mm 2 mps 745 mmHg 82%
21:00 +14°C° 0 mm 2 mps 745 mmHg 84%
22:00 +13°C° 0 mm 3 mps 745 mmHg 86%
23:00 +12°C° 0 mm 3 mps 744 mmHg 88%
Show more